Regional Weather Roundup
Issued by NWS Newport/Morehead, NC

Current Version | Previous Version | Graphics & Text | Print | Product List | Glossary Off
Versions: 1 2 3 4 5 6 7 8 9 10 11 12 13 14 15 16 17 18 19 20 21 22 23 24 25 26 27 28 29 30 31 32 33 34 35 36 37 38 39 40 41 42 43 44 45 46 47 48 49 50

000
ASUS42 KMHX 271313
RWRMHX
WEATHER ROUNDUP FOR EASTERN NORTH CAROLINA
NATIONAL WEATHER SERVICE NEWPORT/MOREHEAD CITY NC
900 AM EDT THU JUL 27 2017

NOTE: "FAIR" INDICATES FEW OR NO CLOUDS BELOW 12,000 FEET
WITH NO SIGNIFICANT WEATHER AND/OR OBSTRUCTIONS TO VISIBILITY

NCZ015>017-031-032-045>047-102-103-271400-
NORTH COAST

CITY           SKY/WX    TMP DP  RH WIND       PRES   REMARKS
EDENTON        PTSUNNY   79  71  75 CALM      30.08F
ELIZABETH CITY PTSUNNY   78  72  81 S6        30.08S
KITTY HAWK     MOSUNNY   78  69  73 CALM      30.07S
MANTEO         NOT AVBL

$$

NCZ045>047-081-094-103-104-271400-
CENTRAL COAST

CITY           SKY/WX    TMP DP  RH WIND       PRES   REMARKS
FRISCO         SUNNY     80  67  64 S3        30.08S

$$

NCZ095-097-098-100-101-271400-
SOUTHERN COAST

CITY           SKY/WX    TMP DP  RH WIND       PRES   REMARKS
BEAUFORT       SUNNY     82  71  69 CALM      30.08S
CEDAR ISLAND   NOT AVBL
JACKSONVILLE   SUNNY     80  74  81 E3        30.07S
PINEY ISLAND   SUNNY    N/A N/A N/A S6        30.08S
WILMINGTON     MOSUNNY   81  72  74 SE8       30.07S


$$

NCZ011>013-027>030-043-044-078>080-089-090>093-098-271400-
COASTAL PLAIN

CITY           SKY/WX    TMP DP  RH WIND       PRES   REMARKS
AHOSKIE          N/A     73  69  87 CALM      30.09S
CLINTON        PTSUNNY   77  74  91 CALM      30.09S
ELIZABETHTOWN  NOT AVBL
GOLDSBORO      MOSUNNY   77  75  94 S5        30.07F
GREENVILLE     SUNNY     77  70  78 SW5       30.09F
HAVELOCK       MOSUNNY   80  73  79 SE3       30.09R
KENANSVILLE    MOSUNNY   75  70  83 CALM      30.09S
KINSTON        MOSUNNY   79  70  73 S6        30.09F
NEW BERN       SUNNY     80  72  76 S6        30.09S
RICHLANDS      SUNNY     79  74  84 SE3       30.09S
ROCKY MOUNT    PTSUNNY   74  71  91 SW5       30.09S
WASHINGTON     MOSUNNY   78  71  77 S6        30.08F
WHITEVILLE     SUNNY     78  73  85 CALM      30.08R

$$

AMZ130-135-150-152-154-156-158-170-250-252-270-ANZ085-086-088-633-658-670-271400-
MARINE OBSERVATIONS

STATION/POSITION TIME  TEMP    WIND        PRES    WAVE   SWELL
                       AIR SEA DIR/SP/G            HT/PER HT/PER
                 (UTC) (F)     (DEG/KT/KT) (MB)    (FT/S) (FT/S)
CHESAPEAKE LIGHT NOT AVBL
64 E VA BEACH    1250   76 77  230/  2/  4 1019.1    3/ 8   3/ 8
DUCK             1242   77 71  120/  3/  6 1018.1
2 E DUCK         1300      74                N/A     3/ 6
OREGON INLET     1242   78 76  150/  4/  5 1018.3
13E OREGON INLT  1248      78                N/A     3/ 8   3/ 8
HATTERAS CG      1242   80 78   10/  3/  3 1018.5
DIAMOND BUOY     1250   81 83  210/  2/  2 1018.5    3/ 8   3/ 8
CAPE LOOKOUT     1300   81      80/  2/  2 1018.2
BEAUFORT LAB     1242   81 79  160/  1/  4 1018.0
30 SE NEW RVR IN 1208   81 84  130/  8/ 12 1018.3
30 SE NEW RVR IN 1243      84                N/A     2/ 7
27 SE WRIGHTSVLE 1208   82 83  130/ 10/ 12 1017.9
5 SE WRIGHTSVLE  1208   81 81  130/ 10/ 14 1017.9
225 S CAPE HAT   1250   80 83  280/  8/  8 1017.7    3/ 7   3/ 7
41 SE CHARLESTON 1250   81 82  210/ 12/ 17 1017.9    2/ 6   2/ 6

$$



USA.gov is the U.S. government's official web portal to all federal, state and local government web resources and services.